�������l�o���
Date,Time,MP-1(��Sv/h),MP-2(��Sv/h),MP-3(��Sv/h),MP-4(��Sv/h),MP-5(��Sv/h),MP-6(��Sv/h),MP-7(��Sv/h),MP-8(��Sv/h),����,����(m/s),���J
2022/05/30,00:00,0.585,0.854,0.548,1.033,0.730,0.350,0.600,0.562,�k,5.9,��
2022/05/30,00:10,0.585,0.851,0.547,1.032,0.726,0.348,0.600,0.564,�k,5.7,��
2022/05/30,00:20,0.585,0.852,0.548,1.034,0.726,0.349,0.599,0.563,�k,5.2,��
2022/05/30,00:30,0.584,0.851,0.549,1.033,0.726,0.349,0.601,0.564,�k,4.8,��
2022/05/30,00:40,0.585,0.851,0.547,1.033,0.725,0.349,0.599,0.564,�k,5.0,��
2022/05/30,00:50,0.584,0.851,0.547,1.034,0.728,0.348,0.599,0.563,�k,5.7,��
2022/05/30,01:00,0.583,0.851,0.549,1.033,0.726,0.349,0.600,0.562,�k,5.4,��
2022/05/30,01:10,0.584,0.852,0.548,1.035,0.727,0.347,0.601,0.562,�k,5.1,��
2022/05/30,01:20,0.584,0.850,0.545,1.034,0.724,0.349,0.599,0.562,�k�k��,4.3,��
2022/05/30,01:30,0.583,0.849,0.548,1.032,0.724,0.348,0.599,0.563,�k�k��,3.7,��
2022/05/30,01:40,0.581,0.849,0.546,1.032,0.724,0.347,0.599,0.562,�k�k��,3.6,��
2022/05/30,01:50,0.584,0.848,0.546,1.032,0.725,0.347,0.600,0.563,�k,3.7,��
2022/05/30,02:00,0.582,0.850,0.546,1.031,0.727,0.346,0.599,0.561,�k,4.0,��
2022/05/30,02:10,0.582,0.850,0.545,1.035,0.723,0.346,0.599,0.563,�k,4.6,��
2022/05/30,02:20,0.581,0.849,0.547,1.031,0.725,0.347,0.599,0.562,�k,4.8,��
2022/05/30,02:30,0.582,0.852,0.546,1.031,0.726,0.346,0.599,0.562,�k,4.2,��
2022/05/30,02:40,0.582,0.851,0.547,1.030,0.726,0.346,0.598,0.561,�k,3.8,��
2022/05/30,02:50,0.583,0.850,0.547,1.033,0.724,0.347,0.598,0.563,�k,3.1,��
2022/05/30,03:00,0.581,0.850,0.547,1.033,0.723,0.347,0.598,0.561,�k�k��,2.8,��
2022/05/30,03:10,0.582,0.849,0.545,1.033,0.724,0.347,0.597,0.564,�k�k��,1.5,��
2022/05/30,03:20,0.581,0.849,0.545,1.031,0.725,0.348,0.596,0.562,�k,2.0,��
2022/05/30,03:30,0.582,0.850,0.544,1.030,0.727,0.346,0.598,0.563,�k,1.5,��
2022/05/30,03:40,0.581,0.848,0.544,1.029,0.723,0.345,0.597,0.562,�k,1.7,��
2022/05/30,03:50,0.581,0.849,0.545,1.032,0.723,0.346,0.597,0.562,�k�k��,2.2,��
2022/05/30,04:00,0.579,0.848,0.545,1.032,0.725,0.346,0.597,0.561,�k,3.1,��
2022/05/30,04:10,0.581,0.848,0.543,1.030,0.725,0.346,0.596,0.563,�k�k��,2.5,��
2022/05/30,04:20,0.579,0.848,0.547,1.032,0.725,0.347,0.595,0.560,�k�k��,1.5,��
2022/05/30,04:30,0.581,0.848,0.546,1.033,0.726,0.346,0.598,0.563,�k,2.2,��
2022/05/30,04:40,0.581,0.850,0.545,1.031,0.725,0.346,0.598,0.562,�k,2.0,��
2022/05/30,04:50,0.580,0.850,0.546,1.033,0.723,0.344,0.596,0.563,�k,2.0,��
2022/05/30,05:00,0.580,0.850,0.545,1.031,0.723,0.346,0.597,0.561,�k,1.9,��
2022/05/30,05:10,0.580,0.849,0.543,1.030,0.725,0.347,0.598,0.562,�k,2.2,��
2022/05/30,05:20,0.581,0.849,0.544,1.033,0.724,0.346,0.596,0.561,�k,3.7,��
2022/05/30,05:30,0.579,0.847,0.546,1.031,0.725,0.345,0.598,0.562,�k,3.9,��
2022/05/30,05:40,0.581,0.850,0.546,1.032,0.724,0.345,0.597,0.561,�k,3.0,��
2022/05/30,05:50,0.580,0.851,0.544,1.032,0.724,0.346,0.598,0.561,�k,2.6,��
2022/05/30,06:00,0.580,0.846,0.545,1.032,0.724,0.346,0.597,0.562,�k,2.8,��
2022/05/30,06:10,0.581,0.851,0.547,1.032,0.722,0.346,0.597,0.562,�k�k��,2.9,��
2022/05/30,06:20,0.583,0.848,0.545,1.032,0.725,0.345,0.597,0.563,�k,3.4,��
2022/05/30,06:30,0.581,0.848,0.544,1.033,0.724,0.345,0.598,0.561,�k�k��,3.5,��
2022/05/30,06:40,0.581,0.846,0.545,1.032,0.725,0.345,0.597,0.562,�k�k��,3.5,��
2022/05/30,06:50,0.581,0.847,0.546,1.030,0.724,0.343,0.597,0.562,�k�k��,3.5,��
2022/05/30,07:00,0.580,0.848,0.544,1.033,0.723,0.344,0.596,0.563,�k�k��,3.2,��
2022/05/30,07:10,0.581,0.846,0.545,1.032,0.722,0.343,0.598,0.563,�k�k��,3.7,��
2022/05/30,07:20,0.580,0.848,0.545,1.031,0.723,0.344,0.595,0.563,�k�k��,4.1,��
2022/05/30,07:30,0.579,0.847,0.546,1.031,0.725,0.344,0.595,0.564,�k�k��,3.9,��
2022/05/30,07:40,0.579,0.847,0.545,1.032,0.723,0.344,0.596,0.563,�k�k��,3.8,��
2022/05/30,07:50,0.580,0.847,0.544,1.031,0.722,0.343,0.594,0.562,�k��,3.8,��
2022/05/30,08:00,0.579,0.847,0.544,1.032,0.725,0.344,0.595,0.561,�k��,4.2,��
2022/05/30,08:10,0.579,0.848,0.544,1.030,0.725,0.344,0.594,0.560,�k��,4.2,��
2022/05/30,08:20,0.580,0.846,0.543,1.032,0.722,0.344,0.594,0.559,�k�k��,4.3,��
2022/05/30,08:30,0.580,0.847,0.544,1.031,0.724,0.344,0.594,0.559,�k�k��,4.1,��
2022/05/30,08:40,0.581,0.848,0.543,1.032,0.725,0.344,0.595,0.561,�k�k��,4.1,��
2022/05/30,08:50,0.581,0.846,0.542,1.032,0.723,0.343,0.596,0.562,�k�k��,3.6,��
2022/05/30,09:00,0.580,0.845,0.543,1.032,0.724,0.344,0.595,0.561,�k,4.4,��
2022/05/30,09:10,0.580,0.847,0.543,1.032,0.724,0.344,0.595,0.561,�k�k��,4.4,��
2022/05/30,09:20,0.580,0.845,0.543,1.034,0.722,0.345,0.594,0.561,�k�k��,4.4,��
2022/05/30,09:30,0.580,0.848,0.542,1.031,0.720,0.344,0.594,0.561,�k�k��,4.0,��
2022/05/30,09:40,0.581,0.847,0.542,1.033,0.722,0.344,0.594,0.561,�k�k��,4.2,��
2022/05/30,09:50,0.581,0.848,0.541,1.034,0.726,0.345,0.595,0.562,�k�k��,4.2,��
2022/05/30,10:00,0.581,0.849,0.545,1.033,0.726,0.344,0.595,0.561,�k,4.7,��
2022/05/30,10:10,0.580,0.849,0.544,1.033,0.723,0.345,0.594,0.561,�k�k��,4.1,��
2022/05/30,10:20,0.580,0.849,0.546,1.033,0.724,0.344,0.595,0.561,�k�k��,3.9,��
2022/05/30,10:30,0.581,0.849,0.544,1.034,0.723,0.346,0.594,0.562,���k��,3.3,��
2022/05/30,10:40,0.583,0.847,0.545,1.032,0.724,0.345,0.593,0.561,�k�k��,3.3,��
2022/05/30,10:50,0.580,0.847,0.543,1.035,0.725,0.343,0.594,0.561,���k��,3.1,��
2022/05/30,11:00,0.579,0.849,0.545,1.033,0.724,0.344,0.594,0.561,���k��,2.2,��
2022/05/30,11:10,0.581,0.849,0.544,1.033,0.726,0.344,0.593,0.561,���k��,3.1,��
2022/05/30,11:20,0.581,0.849,0.545,1.032,0.724,0.344,-,0.561,���k��,1.9,��
2022/05/30,11:30,0.582,0.849,0.544,1.031,0.725,0.344,-,0.562,��,2.9,��
2022/05/30,11:40,0.581,0.850,0.545,1.030,0.726,0.345,-,0.561,��,2.3,��
2022/05/30,11:50,0.582,0.851,0.546,1.032,0.727,0.346,-,0.561,��,1.7,��
2022/05/30,12:00,0.582,0.853,0.545,1.031,0.727,0.347,-,0.562,���k��,2.8,��
2022/05/30,12:10,0.583,0.853,0.546,1.031,0.728,0.345,-,0.560,�k��,1.9,��
2022/05/30,12:20,0.583,0.856,0.547,1.031,0.726,0.346,-,0.560,�k��,2.3,��
2022/05/30,12:30,0.583,0.854,0.546,1.031,0.727,0.345,-,0.562,��,2.0,��
2022/05/30,12:40,0.582,0.854,0.545,1.032,0.727,0.346,-,0.560,���쓌,2.3,��
2022/05/30,12:50,0.584,0.853,0.547,1.033,0.727,0.346,-,0.561,���쓌,2.3,��
2022/05/30,13:00,0.582,0.855,0.548,1.032,0.729,0.345,-,0.561,��,2.6,��
2022/05/30,13:10,0.583,0.851,0.547,1.033,0.728,0.343,-,0.562,��,2.6,��
2022/05/30,13:20,0.582,0.853,0.547,1.032,0.729,0.345,-,0.561,��,3.0,��
2022/05/30,13:30,0.582,0.849,0.547,1.031,0.729,0.344,-,0.562,���쓌,3.3,��
2022/05/30,13:40,0.583,0.851,0.547,1.032,0.729,0.345,-,0.561,���쓌,3.9,��
2022/05/30,13:50,0.583,0.852,0.546,1.033,0.728,0.344,-,0.562,���쓌,3.0,��
2022/05/30,14:00,0.583,0.853,0.547,1.033,0.731,0.344,-,0.561,���쓌,4.5,��
2022/05/30,14:10,0.584,0.879,0.547,1.035,0.728,0.344,0.594,0.563,���쓌,4.0,��
2022/05/30,14:20,0.582,0.854,0.547,1.035,0.730,0.345,0.597,0.562,��,3.7,��
2022/05/30,14:30,0.582,0.852,0.547,1.033,0.730,0.345,0.597,0.562,��,3.4,��
2022/05/30,14:40,0.583,0.853,0.547,1.035,0.729,0.344,0.596,0.562,���쓌,3.3,��
2022/05/30,14:50,0.583,0.852,0.546,1.035,0.730,0.346,0.598,0.562,��,3.0,��
2022/05/30,15:00,0.584,0.854,0.547,1.035,0.729,0.346,0.597,0.562,��,3.1,��
2022/05/30,15:10,0.584,0.852,0.548,1.034,0.731,0.345,0.597,0.562,��,2.3,��
2022/05/30,15:20,0.582,0.854,0.548,1.034,0.730,0.345,0.596,0.563,��,2.8,��
2022/05/30,15:30,0.584,0.854,0.548,1.032,0.730,0.345,0.598,0.561,���쓌,3.1,��
2022/05/30,15:40,0.584,0.854,0.548,1.034,0.729,0.344,0.598,0.563,��,2.6,��
2022/05/30,15:50,0.582,0.855,0.549,1.034,0.730,0.344,0.597,0.559,��,2.2,��
2022/05/30,16:00,0.583,0.854,0.547,1.035,0.731,0.344,0.599,0.562,��,2.2,��
2022/05/30,16:10,0.582,0.855,0.547,1.036,0.730,0.343,0.598,0.561,���k��,2.3,��
2022/05/30,16:20,0.584,0.855,0.548,1.034,0.732,0.346,0.597,0.562,���k��,2.3,��
2022/05/30,16:30,0.584,0.855,0.547,1.032,0.730,0.346,0.598,0.561,���k��,2.6,��
2022/05/30,16:40,0.584,0.856,0.548,1.037,0.729,0.345,0.598,0.563,�k��,2.5,��
2022/05/30,16:50,0.585,0.855,0.548,1.035,0.731,0.346,0.597,0.563,���k��,2.0,��
2022/05/30,17:00,0.585,0.856,0.549,1.034,0.729,0.346,0.598,0.562,���k��,2.3,��
2022/05/30,17:10,0.583,0.858,0.547,1.034,0.730,0.344,0.598,0.562,�k��,2.5,��
2022/05/30,17:20,0.584,0.858,0.548,1.034,0.729,0.346,0.598,0.562,���k��,2.3,��
2022/05/30,17:30,0.582,0.857,0.547,1.035,0.732,0.346,0.598,0.562,�k��,2.5,��
2022/05/30,17:40,0.583,0.859,0.548,1.035,0.728,0.346,0.597,0.562,�k��,2.9,��
2022/05/30,17:50,0.583,0.859,0.548,1.037,0.728,0.347,0.599,0.561,�k��,2.0,��
2022/05/30,18:00,0.583,0.859,0.547,1.035,0.731,0.346,0.598,0.561,�k��,2.0,��
2022/05/30,18:10,0.582,0.860,0.545,1.037,0.730,0.346,0.597,0.563,���k��,2.0,��
2022/05/30,18:20,0.585,0.859,0.546,1.036,0.730,0.346,0.598,0.564,�k��,2.0,��
2022/05/30,18:30,0.583,0.860,0.547,1.037,0.730,0.345,0.598,0.564,���k��,2.2,��
2022/05/30,18:40,0.583,0.858,0.550,1.039,0.730,0.346,0.597,0.563,���k��,1.4,��
2022/05/30,18:50,0.584,0.861,0.550,1.037,0.733,0.347,0.600,0.564,�k�k��,1.9,��
2022/05/30,19:00,0.586,0.858,0.549,1.039,0.732,0.346,0.599,0.565,�k��,1.9,��
2022/05/30,19:10,0.585,0.858,0.551,1.039,0.733,0.346,0.599,0.564,�k��,2.0,��
2022/05/30,19:20,0.585,0.858,0.548,1.038,0.732,0.347,0.599,0.565,�k��,1.5,��
2022/05/30,19:30,0.584,0.858,0.549,1.038,0.732,0.346,0.600,0.564,�k�k��,2.3,��
2022/05/30,19:40,0.583,0.857,0.549,1.038,0.733,0.347,0.600,0.563,�k��,2.0,��
2022/05/30,19:50,0.584,0.861,0.549,1.038,0.733,0.347,0.600,0.564,�k�k��,1.9,��
2022/05/30,20:00,0.585,0.858,0.548,1.038,0.732,0.346,0.600,0.565,�k�k��,1.5,��
2022/05/30,20:10,0.586,0.858,0.548,1.038,0.730,0.346,0.600,0.563,�k,2.0,��
2022/05/30,20:20,0.584,0.858,0.549,1.035,0.733,0.347,0.599,0.564,�k�k��,1.5,��
2022/05/30,20:30,0.586,0.861,0.549,1.037,0.732,0.347,0.600,0.564,�k��,2.0,��
2022/05/30,20:40,0.584,0.860,0.549,1.039,0.732,0.348,0.599,0.564,�k�k��,2.3,��
2022/05/30,20:50,0.583,0.857,0.548,1.039,0.731,0.348,0.599,0.564,�k�k��,2.2,��
2022/05/30,21:00,0.583,0.858,0.549,1.036,0.734,0.346,0.601,0.565,�k�k��,1.9,��
2022/05/30,21:10,0.584,0.858,0.548,1.037,0.731,0.346,0.600,0.563,�k��,2.0,��
2022/05/30,21:20,0.584,0.858,0.547,1.041,0.732,0.347,0.601,0.563,�k��,2.3,��
2022/05/30,21:30,0.584,0.858,0.549,1.039,0.733,0.347,0.601,0.564,�k��,2.6,��
2022/05/30,21:40,0.585,0.857,0.548,1.037,0.732,0.345,0.600,0.564,�k��,2.3,��
2022/05/30,21:50,0.584,0.859,0.548,1.039,0.732,0.348,0.600,0.564,�k��,2.2,��
2022/05/30,22:00,0.583,0.858,0.547,1.039,0.734,0.346,0.600,0.563,�k��,2.3,��
2022/05/30,22:10,0.584,0.858,0.548,1.036,0.733,0.345,0.600,0.563,�k��,2.5,��
2022/05/30,22:20,0.583,0.857,0.548,1.038,0.733,0.345,0.599,0.563,�k�k��,2.2,��
2022/05/30,22:30,0.584,0.857,0.547,1.038,0.733,0.347,0.600,0.565,�k��,2.6,��
2022/05/30,22:40,0.584,0.856,0.549,1.037,0.731,0.348,0.599,0.565,�k�k��,2.3,��
2022/05/30,22:50,0.584,0.858,0.549,1.039,0.732,0.346,0.600,0.565,�k�k��,2.5,��
2022/05/30,23:00,0.584,0.856,0.549,1.037,0.732,0.345,0.600,0.565,�k�k��,2.6,��
2022/05/30,23:10,0.584,0.859,0.548,1.037,0.731,0.346,0.600,0.562,�k��,2.3,��
2022/05/30,23:20,0.584,0.859,0.548,1.038,0.731,0.347,0.600,0.565,�k�k��,2.8,��
2022/05/30,23:30,0.585,0.859,0.547,1.037,0.731,0.346,0.601,0.563,�k�k��,3.1,��
2022/05/30,23:40,0.585,0.857,0.548,1.039,0.732,0.346,0.601,0.564,�k�k��,3.1,��
2022/05/30,23:50,0.585,0.856,0.547,1.038,0.734,0.347,0.600,0.564,�k�k��,2.6,��
